KNUCKPSP

Guest
Details From KNUC - San Clemente Island Nalf
To KPSP - Palm Springs Intl
Flight Number -
Tags generated
Created
Modified
Stats Distance 115 nm / 213 km
Max Altitude 4,300 ft / 1,311 m
Waypoints 3
Social Downloads 1
Likes 0
Share VATSIM

Download

Looking for another format? Having issues loading an existing format? Contact us
Advertisement - Login to hide

Notes

Basic altitude profile: - Ascent Rate: 2500ft/min - Ascent Speed: 250kts - Cruise Altitude: 12ft - Cruise Speed: 420kts - Descent Rate: 1500ft/min - Descent Speed: 250kts Options: - Use NATs: yes - Use PACOTS: yes - Use low airways: yes - Use high airways: yes

Route

KNUC HEMET KPSP

ID Type Via Altitude (ft/m) Position (lat/lon) Dist (leg/tot) Name
O KNUC APT - 0 / 0 33.02274 / -118.58849 - / 0 nm San Clemente Island Nalf
HEMET FIX - 4,300 / 1,311 33.69049 / -116.87905 94 / 94 nm
O KPSP APT - 0 / 0 33.82968 / -116.50622 20 / 115 nm Palm Springs Intl

Altitude Profile

Advertisement - Login to hide

KNUC

Details ICAO KNUC
Name San Clemente Island NALF
Region United States
Timezone America/Los_Angeles (UTC-8.0)
Stats Elevation 183 ft / 56 m (AMSL)
Location 33.023000° -118.588000°
Runways 1
Magnetic Variation 11.774° E

METAR

KNUC 181856Z VRB05KT 10SM BKN014 BKN200 18/13 A3024 RMK AO2 SLP239 T01780133 $

Decode

TAF

TAF KNUC 1815/1915 VRB06KT 9999 SCT015 QNH3015INS TEMPO 1815/1821 BKN015 BECMG 1821/1822 VRB06KT 9999 BKN015 QNH3014INS BECMG 1903/1904 SCT015 QNH3013INS FM191400 VRB06KT 9999 BKN015 QNH3014INS T18/1819Z T13/1913Z FS30134

Decode

Departure Runways

ID Width Length Bearing (true/mag) Surface Threshold Overrun Markings Lighting
06 180 ft / 55 m 9,304 ft / 2,836 m 67.20° / 55.43° CONCRETE 0 ft / 0 m 0 ft / 0 m VISUAL EDGE THRESHOLD REIL-OMNI
24 180 ft / 55 m 9,304 ft / 2,836 m 247.22° / 235.44° CONCRETE 0 ft / 0 m 0 ft / 0 m PREC-APP EDGE THRESHOLD REIL-OMNI

KPSP

Details ICAO KPSP (PSP)
Name Palm Springs Intl
Region United States
Timezone America/Los_Angeles (UTC-8.0)
Stats Elevation 477 ft / 145 m (AMSL)
Location 33.829700° -116.506000°
Runways 2
Magnetic Variation 11.491° E

METAR

KPSP 181853Z 00000KT 10SM CLR 19/05 A3020 RMK AO2 SLPNO T01890050 $

Decode

TAF

TAF KPSP 181720Z 1818/1918 28005KT P6SM SKC

Decode

Destination Runways

ID Width Length Bearing (true/mag) Surface Threshold Overrun Markings Lighting
13L 75 ft / 23 m 4,958 ft / 1,511 m 143.52° / 132.03° ASPHALT 0 ft / 0 m 151 ft / 46 m APP CENTERLINE EDGE THRESHOLD ALSF-I REIL-OMNI
13R 151 ft / 46 m 10,009 ft / 3,051 m 143.51° / 132.02° ASPHALT 3,002 ft / 915 m 200 ft / 61 m PREC-APP CENTERLINE EDGE THRESHOLD ALSF-I REIL-OMNI
31L 151 ft / 46 m 10,009 ft / 3,051 m 323.52° / 312.03° ASPHALT 1,499 ft / 457 m 200 ft / 61 m PREC-APP CENTERLINE EDGE THRESHOLD ALSF-I REIL-OMNI
31R 75 ft / 23 m 4,958 ft / 1,511 m 323.52° / 312.03° ASPHALT 0 ft / 0 m 148 ft / 45 m APP CENTERLINE EDGE THRESHOLD ALSF-I REIL-OMNI

Popular Alternatives